TimeEST,TemperatureF,Dew PointF,Humidity,Sea Level PressureIn,VisibilityMPH,Wind Direction,Wind SpeedMPH,Gust SpeedMPH,PrecipitationIn,Events,Conditions,WindDirDegrees,DateUTC
12:14 AM,19.4,15.8,86,30.33,10.0,Calm,Calm,-,N/A,Snow,Light Snow,0,2013-01-27 05:14:00
12:35 AM,21.2,17.6,86,30.33,10.0,Calm,Calm,-,N/A,Snow,Light Snow,0,2013-01-27 05:35:00
12:55 AM,19.4,17.6,93,30.34,10.0,WNW,4.6,-,N/A,,Overcast,290,2013-01-27 05:55:00
1:14 AM,21.2,17.6,86,30.33,10.0,Calm,Calm,-,N/A,,Overcast,0,2013-01-27 06:14:00
1:35 AM,21.2,17.6,86,30.32,10.0,Calm,Calm,-,N/A,,Mostly Cloudy,0,2013-01-27 06:35:00
1:54 AM,21.2,17.6,86,30.32,10.0,Calm,Calm,-,N/A,,Overcast,0,2013-01-27 06:54:00
2:14 AM,21.2,17.6,86,30.32,10.0,Calm,Calm,-,N/A,,Overcast,0,2013-01-27 07:14:00
2:35 AM,19.4,15.8,86,30.31,10.0,Calm,Calm,-,N/A,,Overcast,0,2013-01-27 07:35:00
2:54 AM,17.6,14.0,86,30.31,10.0,Calm,Calm,-,N/A,,Mostly Cloudy,0,2013-01-27 07:54:00
3:15 AM,15.8,12.2,86,30.31,10.0,Calm,Calm,-,N/A,,Mostly Cloudy,0,2013-01-27 08:15:00
3:35 AM,15.8,12.2,86,30.31,10.0,Calm,Calm,-,N/A,,Overcast,0,2013-01-27 08:35:00
3:54 AM,17.6,14.0,86,30.30,10.0,Calm,Calm,-,N/A,,Overcast,0,2013-01-27 08:54:00
4:15 AM,21.2,15.8,80,30.31,10.0,West,4.6,-,N/A,,Overcast,270,2013-01-27 09:15:00
4:34 AM,21.2,15.8,80,30.30,10.0,WSW,3.5,-,N/A,,Overcast,250,2013-01-27 09:34:00
4:55 AM,23.0,15.8,74,30.29,10.0,SW,3.5,-,N/A,,Overcast,230,2013-01-27 09:55:00
5:14 AM,23.0,15.8,74,30.29,10.0,SW,3.5,-,N/A,,Overcast,230,2013-01-27 10:14:00
5:35 AM,24.8,17.6,74,30.28,10.0,SSW,6.9,-,N/A,,Overcast,210,2013-01-27 10:35:00
5:55 AM,24.8,17.6,74,30.28,10.0,SW,8.1,-,N/A,,Overcast,220,2013-01-27 10:55:00
6:14 AM,24.8,19.4,80,30.27,10.0,SW,8.1,-,N/A,,Overcast,220,2013-01-27 11:14:00
6:35 AM,24.8,19.4,80,30.28,10.0,SW,11.5,16.1,N/A,,Overcast,220,2013-01-27 11:35:00
6:54 AM,24.8,19.4,80,30.28,10.0,SW,10.4,-,N/A,,Overcast,220,2013-01-27 11:54:00
7:14 AM,24.8,19.4,80,30.27,10.0,SSW,8.1,-,N/A,,Overcast,210,2013-01-27 12:14:00
7:35 AM,24.8,21.2,86,30.26,10.0,SSW,10.4,-,N/A,,Overcast,210,2013-01-27 12:35:00
7:54 AM,24.8,21.2,86,30.26,10.0,SW,9.2,-,N/A,Snow,Light Snow,220,2013-01-27 12:54:00
8:15 AM,26.6,21.2,80,30.25,10.0,SW,6.9,-,N/A,Snow,Light Snow,220,2013-01-27 13:15:00
8:35 AM,26.6,21.2,80,30.26,10.0,SSW,8.1,-,N/A,Snow,Light Snow,210,2013-01-27 13:35:00
8:54 AM,26.6,23.0,86,30.25,7.0,SW,6.9,-,N/A,Snow,Light Snow,220,2013-01-27 13:54:00
9:15 AM,26.6,24.8,93,30.25,10.0,SW,6.9,-,N/A,Snow,Light Snow,220,2013-01-27 14:15:00
9:34 AM,26.6,24.8,93,30.25,10.0,SSW,6.9,-,N/A,Snow,Light Snow,200,2013-01-27 14:34:00
9:55 AM,28.4,24.8,86,30.25,10.0,SSW,8.1,-,N/A,,Overcast,210,2013-01-27 14:55:00
10:14 AM,28.4,24.8,86,30.25,10.0,SSW,5.8,-,N/A,,Overcast,210,2013-01-27 15:14:00
10:35 AM,30.2,24.8,80,30.25,10.0,SW,5.8,-,N/A,,Overcast,220,2013-01-27 15:35:00
10:55 AM,30.2,23.0,75,30.25,10.0,SSW,6.9,-,N/A,,Overcast,210,2013-01-27 15:55:00
11:14 AM,30.2,23.0,75,30.25,10.0,SSW,9.2,-,N/A,,Overcast,210,2013-01-27 16:14:00
11:35 AM,30.2,23.0,75,30.25,10.0,SW,9.2,-,N/A,,Overcast,220,2013-01-27 16:35:00
11:54 AM,30.2,24.8,80,30.24,10.0,SSW,5.8,-,N/A,,Overcast,200,2013-01-27 16:54:00
12:14 PM,30.2,24.8,80,30.24,10.0,SSW,8.1,-,N/A,,Overcast,200,2013-01-27 17:14:00
12:35 PM,32.0,26.6,80,30.23,10.0,SSW,6.9,-,N/A,,Overcast,200,2013-01-27 17:35:00
12:54 PM,32.0,26.6,80,30.22,10.0,SSW,8.1,-,N/A,,Overcast,210,2013-01-27 17:54:00
1:15 PM,33.8,28.4,81,30.21,10.0,SSW,6.9,-,N/A,,Mostly Cloudy,200,2013-01-27 18:15:00
1:35 PM,33.8,28.4,81,30.20,10.0,SSW,8.1,-,N/A,,Mostly Cloudy,200,2013-01-27 18:35:00
1:54 PM,33.8,30.2,87,30.19,10.0,SSW,11.5,-,N/A,,Mostly Cloudy,200,2013-01-27 18:54:00
2:15 PM,35.6,30.2,81,30.17,10.0,SSW,13.8,19.6,N/A,,Mostly Cloudy,210,2013-01-27 19:15:00
2:34 PM,35.6,30.2,81,30.17,10.0,SSW,11.5,-,N/A,,Mostly Cloudy,200,2013-01-27 19:34:00
2:55 PM,35.6,30.2,81,30.16,10.0,SSW,11.5,-,N/A,,Overcast,200,2013-01-27 19:55:00
3:14 PM,35.6,30.2,81,30.16,10.0,SSW,11.5,18.4,N/A,,Overcast,200,2013-01-27 20:14:00
3:35 PM,35.6,30.2,81,30.16,10.0,SSW,11.5,-,N/A,,Overcast,200,2013-01-27 20:35:00
3:55 PM,33.8,30.2,87,30.15,10.0,South,10.4,-,N/A,,Overcast,180,2013-01-27 20:55:00
4:14 PM,33.8,30.2,87,30.15,10.0,South,13.8,17.3,N/A,,Overcast,190,2013-01-27 21:14:00
4:35 PM,33.8,30.2,87,30.15,10.0,South,13.8,19.6,N/A,,Overcast,190,2013-01-27 21:35:00
4:54 PM,33.8,30.2,87,30.16,10.0,South,13.8,18.4,N/A,,Overcast,180,2013-01-27 21:54:00
5:14 PM,33.8,30.2,87,30.16,10.0,South,11.5,17.3,N/A,,Overcast,180,2013-01-27 22:14:00
5:35 PM,33.8,30.2,87,30.15,7.0,South,12.7,-,N/A,,Overcast,180,2013-01-27 22:35:00
5:54 PM,33.8,30.2,87,30.14,7.0,South,12.7,-,N/A,,Overcast,170,2013-01-27 22:54:00
6:15 PM,33.8,30.2,87,30.14,10.0,South,11.5,-,N/A,,Overcast,170,2013-01-27 23:15:00
6:35 PM,33.8,28.4,81,30.14,10.0,South,12.7,17.3,N/A,,Overcast,180,2013-01-27 23:35:00
6:54 PM,33.8,28.4,81,30.14,10.0,South,12.7,-,N/A,,Overcast,180,2013-01-27 23:54:00
7:14 PM,32.0,28.4,87,30.14,5.0,South,11.5,-,N/A,Snow,Light Snow,170,2013-01-28 00:14:00
7:34 PM,32.0,28.4,87,30.13,3.0,SSE,11.5,-,N/A,Snow,Light Snow,160,2013-01-28 00:34:00
7:55 PM,32.0,28.4,87,30.12,2.0,SSE,11.5,-,N/A,Snow,Light Snow,160,2013-01-28 00:55:00
8:14 PM,32.0,28.4,87,30.12,1.8,SSE,10.4,-,N/A,Snow,Light Snow,160,2013-01-28 01:14:00
8:35 PM,32.0,30.2,93,30.10,2.0,SSE,9.2,-,N/A,Snow,Light Snow,150,2013-01-28 01:35:00
8:55 PM,32.0,30.2,93,30.09,2.5,SSE,11.5,-,N/A,Snow,Light Snow,160,2013-01-28 01:55:00
9:14 PM,32.0,28.4,87,30.08,2.5,SSE,10.4,-,N/A,Snow,Light Snow,150,2013-01-28 02:14:00
9:35 PM,32.0,28.4,87,30.07,3.0,SE,10.4,-,N/A,Snow,Light Snow,140,2013-01-28 02:35:00
9:54 PM,32.0,28.4,87,30.06,4.0,SE,9.2,-,N/A,Snow,Light Snow,140,2013-01-28 02:54:00
10:15 PM,32.0,28.4,87,30.05,3.0,SE,10.4,-,N/A,Snow,Light Snow,140,2013-01-28 03:15:00
10:35 PM,30.2,28.4,93,30.04,5.0,ESE,9.2,-,N/A,,Overcast,120,2013-01-28 03:35:00
10:54 PM,30.2,28.4,93,30.03,5.0,SE,10.4,-,N/A,Snow,Light Snow,130,2013-01-28 03:54:00
11:15 PM,30.2,28.4,93,30.03,4.0,SE,10.4,17.3,N/A,Snow,Light Snow,130,2013-01-28 04:15:00
11:34 PM,30.2,28.4,93,30.01,1.5,ESE,13.8,18.4,N/A,Snow,Light Snow,120,2013-01-28 04:34:00
11:55 PM,30.2,28.4,93,30.00,2.0,ESE,13.8,17.3,N/A,Snow,Light Snow,120,2013-01-28 04:55:00